Weather History for KRBO - June, 2013

Change the Weather History Date:

Thursday, June 13, 2013

  Actual Average (KCRP) Record (KCRP)
Temperature  
Mean Temperature 86 °F 82 °F  
Max Temperature 94 °F 91 °F 97 °F (1911)
Min Temperature 79 °F 74 °F 59 °F (1979)
Degree Days  
Heating Degree Days 0 0  
Month to date heating degree days 0  
Since 1 June heating degree days 0  
Since 1 July heating degree days 898  
Cooling Degree Days 21 17  
Month to date cooling degree days 216  
Year to date cooling degree days 1057  
Since 1 June cooling degree days 216  
Growing Degree Days 36 (Base 50)    
Moisture  
Dew Point 76 °F    
Average Humidity 77    
Maximum Humidity 89    
Minimum Humidity 53    
Precipitation  
Precipitation 0.00 in 0.11 in 4.50 in (1903)
Month to date precipitation 1.39  
Year to date precipitation 11.66  
Snow  
Snow 0.00 in - - ()
Month to date snowfall  
Since 1 June snowfall  
Since 1 July snowfall  
Snow Depth -    
Sea Level Pressure  
Sea Level Pressure 29.97 in    
Wind  
Wind Speed 6 mph (SE)    
Max Wind Speed 22 mph    
Max Gust Speed 29 mph    
Visibility 10 miles    
Events Rain , Thunderstorm    
T = Trace of Precipitation, MM = Missing Value Source: NWS Daily Summary

Daily Weather History Graph

Daily Weather History Graph

Search for Another Location

Airport or City:

Trip Planner

Search our weather history database for the weather conditions in past years. The results will help you decide how hot, cold, wet, or windy it might be!

Date:

Astronomy

Jun. 13, 2013 Rise Set
Actual Time 6:34 AM CDT 8:27 PM CDT
Civil Twilight 6:07 AM CDT 8:54 PM CDT
Nautical Twilight 5:35 AM CDT 9:26 PM CDT
Astronomical Twilight 5:01 AM CDT 10:00 PM CDT
Moon 10:53 AM CDT (6/13) 11:56 PM CDT (6/13)
Length of Visible Light 14h 46m
Length of Day
13h 53m
Waxing Crescent, 22% of the Moon is Illuminated
Jun 13
Waxing Crescent
Jun 16
First Quarter
Jun 23
Full
Jun 29
Last Quarter
Jul 8
New

Hourly Weather History & Observations

Time (CDT) Temp. Heat Index Dew Point Humidity Pressure Visibility Wind Dir Wind Speed Gust Speed Precip Events Conditions
12:15 AM 82.4 °F 90.1 °F 76.1 °F 81% 30.00 in 10.0 mi SSE 9.2 mph - N/A   Clear
12:35 AM 82.4 °F 90.1 °F 76.1 °F 81% 30.00 in 10.0 mi Calm Calm - N/A   Clear
12:55 AM 82.0 °F 89.4 °F 76.1 °F 82% 30.00 in 10.0 mi Calm Calm - N/A   Clear
1:15 AM 81.9 °F 89.2 °F 76.1 °F 83% 29.99 in 10.0 mi SE 11.5 mph - N/A   Clear
1:35 AM 81.9 °F 89.2 °F 76.3 °F 83% 29.99 in 10.0 mi SSE 9.2 mph - N/A   Scattered Clouds
1:55 AM 81.7 °F 89.0 °F 76.3 °F 84% 29.99 in 10.0 mi SE 9.2 mph - N/A   Scattered Clouds
2:15 AM 81.7 °F 89.0 °F 76.5 °F 84% 29.99 in 10.0 mi Calm Calm - N/A   Clear
2:35 AM 81.5 °F 88.7 °F 76.5 °F 85% 29.99 in 10.0 mi Calm Calm - N/A   Clear
2:55 AM 81.5 °F 88.7 °F 76.5 °F 85% 29.99 in 10.0 mi Calm Calm - N/A   Clear
3:15 AM 81.1 °F 87.8 °F 76.3 °F 85% 29.98 in 10.0 mi Calm Calm - N/A   Clear
3:35 AM 81.0 °F 87.5 °F 76.3 °F 86% 29.97 in 10.0 mi Calm Calm - N/A   Clear
3:55 AM 80.8 °F 87.1 °F 76.3 °F 86% 29.97 in 10.0 mi Calm Calm - N/A   Scattered Clouds
4:15 AM 80.6 °F 86.6 °F 76.1 °F 86% 29.98 in 10.0 mi Calm Calm - N/A   Scattered Clouds
4:35 AM 80.6 °F 86.6 °F 76.1 °F 86% 29.97 in 10.0 mi Calm Calm - N/A   Clear
4:55 AM 80.1 °F 85.5 °F 76.1 °F 88% 29.98 in 10.0 mi Calm Calm - N/A   Clear
5:15 AM 80.1 °F 85.5 °F 76.1 °F 88% 29.98 in 10.0 mi Calm Calm - N/A   Clear
5:35 AM 79.9 °F - 76.1 °F 88% 29.98 in 10.0 mi Calm Calm - N/A   Clear
5:55 AM 79.9 °F - 76.1 °F 88% 29.99 in 10.0 mi Calm Calm - N/A   Scattered Clouds
6:15 AM 79.7 °F - 76.1 °F 89% 29.99 in 10.0 mi Calm Calm - N/A   Clear
6:35 AM 80.1 °F 85.5 °F 76.3 °F 88% 30.00 in 10.0 mi Calm Calm - N/A   Clear
6:55 AM 80.2 °F 86.0 °F 76.3 °F 88% 30.00 in 10.0 mi Calm Calm - N/A   Clear
7:15 AM 81.1 °F 88.2 °F 77.0 °F 87% 30.00 in 10.0 mi Calm Calm - N/A   Scattered Clouds
7:35 AM 82.0 °F 90.2 °F 77.0 °F 85% 30.00 in 10.0 mi Calm Calm - N/A   Clear
7:55 AM 83.3 °F 92.8 °F 77.4 °F 82% 30.00 in 10.0 mi Calm Calm - N/A   Clear
8:15 AM 84.2 °F 94.5 °F 77.5 °F 80% 30.01 in 10.0 mi Calm Calm - N/A   Clear
8:35 AM 85.3 °F 96.7 °F 77.7 °F 78% 30.01 in 10.0 mi Calm Calm - N/A   Clear
8:55 AM 86.9 °F 99.3 °F 77.5 °F 74% 30.02 in 10.0 mi SE 8.1 mph - N/A   Scattered Clouds
9:15 AM 86.7 °F 97.8 °F 76.6 °F 72% 30.02 in 10.0 mi SSE 11.5 mph - N/A   Scattered Clouds
9:35 AM 86.5 °F 97.4 °F 76.5 °F 72% 30.02 in 10.0 mi SE 6.9 mph - N/A   Scattered Clouds
9:55 AM 86.7 °F 95.5 °F 74.5 °F 67% 30.02 in 10.0 mi SSE 9.2 mph - N/A   Scattered Clouds
10:15 AM 87.3 °F 94.0 °F 72.5 °F 61% 30.03 in 10.0 mi SSE 9.2 mph - N/A   Clear
10:35 AM 87.8 °F 95.2 °F 72.7 °F 61% 30.03 in 10.0 mi SSE 9.2 mph - N/A   Clear
10:55 AM 88.3 °F 95.9 °F 72.9 °F 60% 30.03 in 10.0 mi SE 10.4 mph - N/A   Clear
11:15 AM 89.6 °F 97.7 °F 73.2 °F 58% 30.02 in 10.0 mi SE 11.5 mph - N/A   Scattered Clouds
11:35 AM 90.1 °F 99.4 °F 73.9 °F 59% 30.02 in 10.0 mi SE 8.1 mph - N/A   Scattered Clouds
11:55 AM 90.1 °F 101.8 °F 75.9 °F 63% 30.02 in 10.0 mi SE 10.4 mph - N/A   Mostly Cloudy
12:15 PM 90.1 °F 101.2 °F 75.7 °F 62% 30.01 in 10.0 mi SE 12.7 mph 19.6 mph N/A   Mostly Cloudy
12:35 PM 91.9 °F 102.6 °F 74.5 °F 57% 30.00 in 10.0 mi SSE 9.2 mph 18.4 mph N/A   Scattered Clouds
12:55 PM 92.5 °F 102.6 °F 74.3 °F 55% 29.99 in 10.0 mi ESE 11.5 mph 17.3 mph N/A   Mostly Cloudy
1:15 PM 92.7 °F 103.7 °F 74.7 °F 56% 29.99 in 10.0 mi SE 16.1 mph 26.5 mph N/A   Mostly Cloudy
1:35 PM 93.7 °F 104.3 °F 74.1 °F 53% 29.99 in 10.0 mi SE 12.7 mph 20.7 mph N/A   Mostly Cloudy
1:55 PM 93.4 °F 104.8 °F 74.8 °F 55% 29.97 in 10.0 mi East 17.3 mph 24.2 mph N/A   Mostly Cloudy
2:15 PM 93.6 °F 103.8 °F 74.1 °F 53% 29.96 in 10.0 mi SE 18.4 mph 24.2 mph N/A   Mostly Cloudy
2:35 PM 93.4 °F 104.1 °F 74.3 °F 54% 29.95 in 10.0 mi ESE 16.1 mph 25.3 mph N/A Thunderstorm Mostly Cloudy
2:55 PM 92.3 °F 101.5 °F 73.6 °F 54% 29.95 in 10.0 mi ESE 18.4 mph 25.3 mph N/A   Mostly Cloudy
3:15 PM 92.3 °F 102.2 °F 74.1 °F 55% 29.95 in 10.0 mi ESE 21.9 mph 27.6 mph N/A Thunderstorm Mostly Cloudy
3:35 PM 93.0 °F 103.2 °F 73.9 °F 54% 29.94 in 10.0 mi ESE 20.7 mph 28.8 mph N/A Thunderstorm Scattered Clouds
3:55 PM 90.5 °F 101.5 °F 75.2 °F 61% 29.95 in 10.0 mi SE 19.6 mph 28.8 mph N/A   Scattered Clouds
4:15 PM 88.3 °F 98.4 °F 75.2 °F 65% 29.96 in 10.0 mi SE 18.4 mph 26.5 mph N/A Thunderstorm Scattered Clouds
4:35 PM 87.1 °F 97.3 °F 75.9 °F 69% 29.95 in 10.0 mi SE 18.4 mph 24.2 mph N/A   Clear
4:55 PM 86.5 °F 96.4 °F 75.9 °F 70% 29.96 in 10.0 mi SE 15.0 mph - N/A   Clear
5:15 PM 86.0 °F 96.4 °F 76.3 °F 73% 29.96 in 10.0 mi ESE 12.7 mph - N/A Thunderstorm Scattered Clouds
5:35 PM 84.4 °F 94.6 °F 77.4 °F 79% 29.94 in 10.0 mi ESE 13.8 mph - N/A Rain Light Rain
5:55 PM 83.7 °F 93.8 °F 77.5 °F 82% 29.94 in 10.0 mi SE 12.7 mph - N/A   Scattered Clouds
6:15 PM 83.7 °F 93.8 °F 77.7 °F 82% 29.94 in 10.0 mi SE 9.2 mph - N/A   Clear
6:35 PM 83.7 °F 94.1 °F 78.1 °F 83% 29.95 in 10.0 mi SE 10.4 mph - N/A Rain Light Rain
6:55 PM 83.3 °F 93.8 °F 78.3 °F 85% 29.94 in 10.0 mi Calm Calm - N/A Rain Light Rain
7:15 PM 82.8 °F 93.2 °F 78.8 °F 88% 29.93 in 10.0 mi ESE 8.1 mph - N/A   Light Drizzle
7:35 PM 82.6 °F 92.3 °F 78.4 °F 87% 29.92 in 10.0 mi ESE 9.2 mph - N/A   Clear
7:55 PM 82.6 °F 92.3 °F 78.4 °F 87% 29.92 in 10.0 mi SE 8.1 mph - N/A   Clear
8:15 PM 82.4 °F 91.8 °F 78.3 °F 87% 29.93 in 10.0 mi SE 6.9 mph - N/A   Scattered Clouds
8:35 PM 82.2 °F 91.3 °F 78.1 °F 87% 29.93 in 10.0 mi ESE 8.1 mph - N/A   Scattered Clouds
8:55 PM 81.9 °F 90.5 °F 77.9 °F 88% 29.93 in 10.0 mi Calm Calm - N/A   Clear
9:15 PM 81.7 °F 89.7 °F 77.4 °F 87% 29.93 in 10.0 mi Calm Calm - N/A   Clear
9:35 PM 81.5 °F 88.7 °F 76.5 °F 85% 29.93 in 10.0 mi Calm Calm - N/A   Clear
9:55 PM 81.1 °F 87.8 °F 76.1 °F 85% 29.93 in 10.0 mi Calm Calm - N/A   Clear
10:15 PM 80.8 °F 87.1 °F 76.1 °F 86% 29.92 in 10.0 mi ESE 5.8 mph - N/A   Clear
10:35 PM 80.6 °F 86.6 °F 76.1 °F 86% 29.93 in 10.0 mi ESE 6.9 mph - N/A   Clear
10:55 PM 80.2 °F 85.8 °F 76.1 °F 87% 29.94 in 10.0 mi Calm Calm - N/A   Clear
11:15 PM 80.1 °F 85.5 °F 76.3 °F 88% 29.95 in 10.0 mi Calm Calm - N/A   Clear
11:35 PM 80.1 °F 85.5 °F 76.3 °F 88% 29.95 in 10.0 mi Calm Calm - N/A   Clear
11:55 PM 80.1 °F 85.7 °F 76.5 °F 89% 29.94 in 10.0 mi Calm Calm - N/A   Clear